Location: Killam
(52.7910°N, 111.8608°W)
Time: 22:39:52
(UTC+00:00)

SR - Pass Details

Date: 19 February 2026
Orbit: 572 x 849 km, 66.7° (Epoch: 11 March)

Event Time Altitude Azimuth Distance (km) Brightness Sun altitude
Exits shadow 13:38:30 12° 267° (W) 1,815 ? -9.3°
Maximum altitude 13:42:00 30° 327° (NNW) 1,117 ? -8.7°
Drops below altitude 10° 13:46:06 10° 29° (NNE) 2,064 ? -8.1°
Sets 13:48:44 0° 40° (NE) 3,029 ? -7.7°
